Hlavní strana
METAR-TAF:

METAR-TAF

Letiště :

Damašek, Sýrie

zeměpisná šířka: 33-25N, zeměpisná délka: 036-31E, výška: 608 m

Aktuální stav počasí

Zpráva byla vytvořena před 24 minutami, v 01:00 UTC
Jihozápadní vítr 14 kt
Teplota 21°C
Vlhkost vzduchu 69%
Tlak 1007 hPa
Viditelnost 10 km a více
Žádná oblačnost pod 1500 m, nevyskytují se cumulonimby.

METAR: OSDI 180100Z 22014KT CAVOK 21/15 Q1007

Čas: 04:24 (01:24 UTC)

Předpověď počasí

Zpráva byla vytvořena před 3 hodinami a 24 minutami, v 22:00 UTC
Předpověď platná od 18 v 00 UTC do 19 v 06 UTC
vítr z různých směrů 3 kt
Viditelnost 10 km a více
Žádná oblačnost pod 1500 m, nevyskytují se cumulonimby.
Dočasný
od 18 v 09 UTC do 18 v 18 UTC
Jihozápadní vítr 10 kt s nárazy do 20 kt
Viditelnost 10 km a více
Skoro jasno ve výšce 3000 ft

TAF: OSDI 172200Z 1800/1906 VRB03KT CAVOK TEMPO 1809/1818 22010G20KT 9999 FEW030

Stav a předpovědi počasí z více než 4 000 letišť (zprávy METAR a TAF).

Červené a žluté tečky na mapě představují dostupné meteorologické stanice.

Když kurzor umístíte na tečku, zobrazí se název stanice.

Pak kliknutím zobrazíte stav a předpověď počasí.

Chcete-li změnit mapu, kliknutím na zelené tlačítko se znaménkem +mapu přiblížíte, kliknutím na zelené tlačítko se znaménkem – mapu oddálíte a kliknutím na zelené šipky přejdete na sousední mapy.


METAR-TAF: